Pascagoula, MS

2:24 AM CST on January 24, 2018 (GMT -0600)
Lott International

Weather History for KPQL - May, 2014

Change the Weather History Date:

Wednesday, May 14, 2014

  Actual Average Record
Temperature  
Mean Temperature 68 °F -  
Max Temperature 75 °F 82 °F 92 °F (1978)
Min Temperature 60 °F 64 °F 49 °F (1989)
Cooling Degree Days 2    
Growing Degree Days 18 (Base 50)    
Moisture  
Dew Point 68 °F    
Average Humidity 94    
Maximum Humidity 100    
Minimum Humidity 81    
Precipitation  
Precipitation 0.67 in - - ()
Sea Level Pressure  
Sea Level Pressure 29.97 in    
Wind  
Wind Speed 3 mph (WNW)    
Max Wind Speed 13 mph    
Max Gust Speed 22 mph    
Visibility 6 miles    
Events Rain    
Averages and records for this station are not official NWS values.
T = Trace of Precipitation, MM = Missing Value Source: NWS Daily Summary

Daily Weather History Graph

Daily Weather History Graph

Search for Another Location

Airport or City:

Trip Planner

Search our weather history database for the weather conditions in past years. The results will help you decide how hot, cold, wet, or windy it might be!

Date:

Astronomy

May. 14, 2014 Rise Set
Actual Time 6:00 AM CDT 7:40 PM CDT
Civil Twilight 5:34 AM CDT 8:07 PM CDT
Nautical Twilight 5:02 AM CDT 8:38 PM CDT
Astronomical Twilight 4:29 AM CDT 9:12 PM CDT
Moon 7:47 PM CDT (5/14) 5:55 AM CDT (5/14)
Length of Visible Light 14h 32m
Length of Day
13h 40m
Full, 100% of the Moon is Illuminated
May 14
Full
May 14
Full
May 21
Last Quarter
May 28
New
Jun 5
First Quarter

Hourly Weather History & Observations

Time (CDT) Temp. Dew Point Humidity Pressure Visibility Wind Dir Wind Speed Gust Speed Precip Events Conditions
12:40 AM 69.1 °F 69.1 °F 100% 30.05 in 1.8 mi Calm Calm - N/A   Partly Cloudy
12:53 AM 69.1 °F 69.1 °F 100% 30.04 in 1.5 mi Calm Calm - N/A   Scattered Clouds
1:07 AM 70.0 °F 69.1 °F 97% 30.03 in 3.0 mi Calm Calm - N/A   Partly Cloudy
1:19 AM 70.0 °F 69.1 °F 97% 30.02 in 1.8 mi Calm Calm - N/A   Partly Cloudy
1:26 AM 70.0 °F 69.1 °F 97% 30.02 in 3.0 mi Calm Calm - N/A   Scattered Clouds
1:53 AM 70.0 °F 69.1 °F 97% 30.02 in 2.0 mi Calm Calm - N/A   Mostly Cloudy
2:00 AM 69.1 °F 68.0 °F 96% 30.01 in 1.5 mi Calm Calm - N/A   Overcast
2:05 AM 69.1 °F 69.1 °F 100% 30.01 in 3.0 mi Calm Calm - N/A   Overcast
2:44 AM 69.1 °F 69.1 °F 100% 30.00 in 1.8 mi Calm Calm - N/A   Mostly Cloudy
2:53 AM 69.1 °F 69.1 °F 100% 30.01 in 1.5 mi Calm Calm - N/A   Mostly Cloudy
2:57 AM 70.0 °F 69.1 °F 97% 30.00 in 3.0 mi Calm Calm - N/A   Mostly Cloudy
4:06 AM 69.1 °F 68.0 °F 96% 29.98 in 1.8 mi Calm Calm - N/A   Scattered Clouds
4:15 AM 68.0 °F 68.0 °F 100% 29.98 in 3.0 mi Calm Calm - N/A   Partly Cloudy
4:32 AM 69.1 °F 68.0 °F 96% 29.99 in 2.5 mi Calm Calm - N/A   Scattered Clouds
4:46 AM 69.1 °F 68.0 °F 96% 29.99 in 1.5 mi Calm Calm - N/A   Mostly Cloudy
4:53 AM 68.0 °F 68.0 °F 100% 30.00 in 2.0 mi Calm Calm - N/A   Mostly Cloudy
5:04 AM 70.0 °F 69.1 °F 97% 30.00 in 5.0 mi East 4.6 mph - N/A   Overcast
5:53 AM 70.0 °F 69.1 °F 97% 30.00 in 6.0 mi ESE 3.5 mph - N/A   Overcast
6:42 AM 71.1 °F 71.1 °F 100% 29.99 in 2.5 mi Calm Calm - 0.00 in   Overcast
6:51 AM 71.6 °F 71.6 °F 100% 30.00 in 3.0 mi West 3.5 mph - 0.00 in   Overcast
6:59 AM 71.1 °F 71.1 °F 100% 30.00 in 2.5 mi Calm Calm - N/A   Overcast
7:06 AM 72.0 °F 71.1 °F 97% 30.00 in 3.0 mi Calm Calm - 0.00 in Rain Light Rain
7:18 AM 72.0 °F 71.1 °F 97% 29.99 in 5.0 mi East 4.6 mph - 0.00 in   Overcast
7:53 AM 73.0 °F 71.1 °F 93% 30.01 in 5.0 mi East 4.6 mph - 0.00 in   Overcast
8:53 AM 75.0 °F 72.0 °F 90% 30.00 in 9.0 mi ESE 6.9 mph - N/A   Mostly Cloudy
10:53 AM 75.0 °F 71.1 °F 87% 29.99 in 10.0 mi SSE 5.8 mph - 0.00 in   Overcast
11:53 AM 75.9 °F 71.1 °F 85% 29.98 in 10.0 mi SSE 5.8 mph - 0.00 in   Mostly Cloudy
12:30 PM 73.9 °F 72.0 °F 93% 29.99 in 2.0 mi Variable 6.9 mph - 0.05 in Rain Light Rain
12:37 PM 69.1 °F 68.0 °F 96% 29.98 in 1.5 mi West 10.4 mph 21.9 mph 0.14 in Rain Heavy Rain
12:48 PM 68.0 °F 66.2 °F 94% 29.99 in 2.5 mi Variable 4.6 mph 19.6 mph 0.22 in Rain Rain
12:53 PM 68.0 °F 66.9 °F 96% 30.00 in 3.0 mi SW 6.9 mph - 0.23 in Rain Light Rain
1:00 PM 68.0 °F 66.9 °F 96% 29.99 in 1.8 mi Variable 4.6 mph - 0.04 in Rain Rain
1:15 PM 68.0 °F 66.9 °F 96% 29.97 in 4.0 mi West 9.2 mph - 0.12 in Rain Light Rain
1:23 PM 68.0 °F 66.9 °F 96% 29.95 in 1.5 mi WNW 9.2 mph - 0.19 in Rain Rain
1:34 PM 68.0 °F 66.9 °F 96% 29.93 in 3.0 mi WNW 4.6 mph - 0.22 in Rain Light Rain
1:53 PM 69.1 °F 66.9 °F 93% 29.92 in 5.0 mi Calm Calm - 0.24 in Rain Light Rain
2:53 PM 69.1 °F 68.0 °F 96% 29.89 in 9.0 mi ENE 4.6 mph - 0.07 in Rain Light Rain
3:04 PM 69.1 °F 69.1 °F 100% 29.89 in 10.0 mi NE 4.6 mph - 0.00 in Rain Light Rain
3:23 PM 70.0 °F 69.1 °F 97% 29.91 in 10.0 mi ESE 4.6 mph - 0.00 in Rain Light Rain
3:53 PM 71.1 °F 70.0 °F 96% 29.93 in 10.0 mi Calm Calm - 0.00 in   Scattered Clouds
4:00 PM 72.0 °F 70.0 °F 93% 29.92 in 10.0 mi East 3.5 mph - N/A   Mostly Cloudy
4:37 PM 73.9 °F 70.0 °F 87% 29.91 in 10.0 mi Calm Calm - N/A   Scattered Clouds
4:53 PM 75.9 °F 71.1 °F 85% 29.91 in 10.0 mi Variable 4.6 mph - N/A   Scattered Clouds
5:03 PM 75.0 °F 71.1 °F 87% 29.90 in 10.0 mi Variable 6.9 mph - N/A   Mostly Cloudy
5:12 PM 75.9 °F 71.1 °F 85% 29.90 in 10.0 mi South 5.8 mph - N/A   Scattered Clouds
5:21 PM 75.9 °F 70.0 °F 82% 29.90 in 10.0 mi South 6.9 mph - N/A   Mostly Cloudy
5:37 PM 75.0 °F 70.0 °F 84% 29.91 in 10.0 mi SSW 4.6 mph - N/A   Scattered Clouds
5:44 PM 73.9 °F 70.0 °F 87% 29.91 in 10.0 mi South 4.6 mph - N/A   Mostly Cloudy
5:53 PM 75.0 °F 70.0 °F 84% 29.91 in 10.0 mi South 3.5 mph - N/A   Mostly Cloudy
6:10 PM 72.0 °F 71.1 °F 97% 29.92 in 0.8 mi West 6.9 mph - 0.12 in Rain Heavy Rain
6:14 PM 72.0 °F 71.1 °F 97% 29.92 in 1.0 mi SW 4.6 mph - 0.13 in Rain Rain
6:19 PM 72.0 °F 71.1 °F 97% 29.92 in 2.5 mi WSW 4.6 mph - 0.13 in Rain Light Rain
6:26 PM 72.0 °F 71.1 °F 97% 29.92 in 10.0 mi Variable 5.8 mph - 0.13 in   Overcast
6:39 PM 72.0 °F 71.1 °F 97% 29.92 in 10.0 mi West 6.9 mph - 0.13 in   Mostly Cloudy
6:47 PM 71.6 °F 69.8 °F 94% 29.93 in 10.0 mi NW 8.1 mph - 0.13 in   Mostly Cloudy
6:48 PM 72.0 °F 70.0 °F 93% 29.94 in 10.0 mi NW 8.1 mph - 0.13 in   Overcast
7:11 PM 71.1 °F 69.1 °F 93% 29.94 in 10.0 mi NNW 6.9 mph - N/A   Overcast
7:26 PM 69.1 °F 66.9 °F 93% 29.95 in 10.0 mi NNW 8.1 mph 17.3 mph N/A   Overcast
7:53 PM 68.0 °F 66.0 °F 93% 29.98 in 10.0 mi NNW 6.9 mph - N/A   Overcast
8:09 PM 68.0 °F 64.9 °F 90% 29.98 in 10.0 mi NNW 9.2 mph 17.3 mph N/A   Overcast
8:19 PM 66.9 °F 64.0 °F 90% 29.98 in 10.0 mi NNW 9.2 mph 19.6 mph N/A   Overcast
8:53 PM 66.9 °F 64.0 °F 90% 30.00 in 10.0 mi NNW 6.9 mph - N/A   Overcast
9:53 PM 64.0 °F 60.1 °F 87% 30.03 in 10.0 mi NNW 12.7 mph 21.9 mph N/A   Overcast
10:53 PM 63.0 °F 57.9 °F 84% 30.05 in 10.0 mi NW 9.2 mph 17.3 mph N/A   Overcast
11:51 PM 60.8 °F 55.4 °F 82% 30.04 in 10.0 mi NNW 12.7 mph 20.7 mph N/A   Scattered Clouds
11:53 PM 61.0 °F 55.0 °F 81% 30.04 in 10.0 mi NNW 12.7 mph 20.7 mph N/A   Scattered Clouds